This demonstration page uses our WeatherBlox Daily Observations layout. Learn more.

Left ArrowRight Arrow

39.51506, -84.39828

Hourly Observations for June 3, 2019

Temp ( °F °C ) Dew Point ( °F °C ) Humidity (%) Winds ( mph kmh ) Pressure ( in mb ) Visibility ( mi km ) Precip ( " mm )
12:15 am 00:15 Clear 57 13.8 40 4.4 53 53 N 3 6 30.01 1016 10 16 N/A
12:35 am 00:35 Clear 56 13.1 40 4.6 57 57 N N/A 30.01 1016 10 16 N/A
12:55 am 00:55 Clear 55 12.6 41 4.8 59 59 N N/A 30.01 1016 10 16 N/A
1:15 am 01:15 Clear 53 11.6 42 5.8 68 68 N N/A 30.01 1016 10 16 N/A
1:35 am 01:35 Clear 50 10.1 44 6.4 78 78 N N/A 30.02 1017 10 16 N/A
1:55 am 01:55 Clear 49 9.6 46 8 90 90 N N/A 30.03 1017 10 16 N/A
2:15 am 02:15 Clear 48 9.1 46 7.6 90 90 N N/A 30.03 1017 10 16 N/A
2:35 am 02:35 Clear 48 8.9 45 7.4 90 90 N N/A 30.03 1017 10 16 N/A
2:55 am 02:55 Clear 48 8.9 46 7.6 92 92 N N/A 30.03 1017 10 16 N/A
3:15 am 03:15 Clear 48 8.7 46 7.7 94 94 N N/A 30.03 1017 10 16 N/A
3:35 am 03:35 Clear 48 8.7 46 7.7 94 94 N N/A 30.03 1017 10 16 N/A
3:55 am 03:55 Clear 47 8.2 45 7.3 94 94 N N/A 30.04 1017 10 16 N/A
4:15 am 04:15 Clear 46 7.9 45 7 94 94 N N/A 30.05 1018 10 16 N/A
4:35 am 04:35 Clear 46 8 45 7.3 95 95 N N/A 30.05 1018 7 11 N/A
4:55 am 04:55 Clear 46 7.9 45 7 94 94 N N/A 30.06 1018 10 16 N/A
5:15 am 05:15 Clear 46 7.6 44 6.9 95 95 N N/A 30.08 1018 10 16 N/A
5:35 am 05:35 Clear 46 7.6 44 6.9 95 95 N N/A 30.09 1019 10 16 N/A
5:55 am 05:55 Clear 46 7.6 44 6.9 95 95 N N/A 30.09 1019 10 16 N/A
6:15 am 06:15 Sunny 46 7.7 45 7 95 95 N N/A 30.09 1019 10 16 N/A
6:35 am 06:35 Sunny 46 7.7 44 6.8 94 94 N N/A 30.10 1019 10 16 N/A
6:55 am 06:55 Sunny 46 7.8 45 7.1 95 95 N N/A 30.11 1020 10 16 N/A
7:15 am 07:15 Sunny 48 8.7 46 7.9 95 95 N N/A 30.12 1020 10 16 N/A
7:35 am 07:35 Sunny 50 9.9 48 8.8 93 93 N N/A 30.12 1020 10 16 N/A
7:55 am 07:55 Sunny 51 10.5 49 9.4 93 93 N N/A 30.13 1020 10 16 N/A
8:15 am 08:15 Sunny 52 11.2 50 9.9 92 92 N N/A 30.13 1020 10 16 N/A
8:35 am 08:35 Sunny 54 12.4 51 10.3 87 87 N N/A 30.12 1020 10 16 N/A
8:55 am 08:55 Sunny 56 13.6 49 9.6 77 77 N N/A 30.13 1020 10 16 N/A
9:15 am 09:15 Sunny 59 15 48 9.1 68 68 NE 5 7 30.14 1021 10 16 N/A
9:35 am 09:35 Sunny 60 15.6 46 7.6 59 59 N N/A 30.15 1021 10 16 N/A
9:55 am 09:55 Sunny 61 16.2 46 7.9 58 58 N N/A 30.15 1021 10 16 N/A
10:15 am 10:15 Sunny 62 16.8 44 6.7 52 52 N N/A 30.15 1021 10 16 N/A
10:35 am 10:35 Sunny 64 17.5 44 6.4 48 48 N N/A 30.14 1021 10 16 N/A
10:55 am 10:55 Sunny 64 18 42 5.4 44 44 N N/A 30.15 1021 10 16 N/A
11:15 am 11:15 Sunny 65 18.4 40 4.3 39 39 S 3 6 30.15 1021 10 16 N/A
11:35 am 11:35 Sunny 66 18.8 43 6 43 43 S 3 6 30.15 1021 10 16 N/A
11:55 am 11:55 Sunny 66 19.1 44 6.4 44 44 N N/A 30.16 1021 10 16 N/A
12:15 pm 12:15 Sunny 66 19.1 44 6.6 44 44 NNW 3 6 30.16 1021 10 16 N/A
12:35 pm 12:35 Sunny 67 19.6 45 7 44 44 N 5 7 30.15 1021 10 16 N/A
12:55 pm 12:55 Sunny 68 20 46 7.5 45 45 NW 3 6 30.13 1020 10 16 N/A
1:15 pm 13:15 Sunny 69 20.3 47 8.3 46 46 N N/A 30.13 1020 10 16 N/A
1:35 pm 13:35 Sunny 69 20.6 47 8.4 46 46 W 3 6 30.12 1020 10 16 N/A
1:55 pm 13:55 Sunny 69 20.6 45 7.1 42 42 N N/A 30.12 1020 10 16 N/A
2:15 pm 14:15 Sunny 70 21.2 47 8.1 43 43 S 5 7 30.12 1020 10 16 N/A
2:35 pm 14:35 Sunny 71 21.7 50 10.2 48 48 SW 8 13 30.12 1020 10 16 N/A
2:55 pm 14:55 Sunny 71 21.8 49 9.7 46 46 W 6 9 30.12 1020 10 16 N/A
3:15 pm 15:15 Sunny 71 21.8 47 8.6 43 43 N 8 13 30.12 1020 10 16 N/A
3:35 pm 15:35 Sunny 71 21.9 46 8 41 41 N 5 7 30.11 1020 10 16 N/A
3:55 pm 15:55 Partly Cloudy 72 22.3 47 8.5 41 41 WSW 8 13 30.11 1020 10 16 N/A
4:15 pm 16:15 Sunny 72 22.4 49 9.2 43 43 SW 5 7 30.11 1020 10 16 N/A
4:35 pm 16:35 Partly Cloudy 73 22.8 49 9.4 43 43 WNW 9 15 30.11 1020 10 16 N/A
4:55 pm 16:55 Sunny 73 22.8 48 8.7 41 41 W 6 9 30.10 1019 10 16 N/A
5:15 pm 17:15 Sunny 73 22.9 50 10.1 44 44 WNW 7 11 30.10 1019 10 16 N/A
5:35 pm 17:35 Sunny 72 22.3 49 9.3 44 44 N N/A 30.09 1019 10 16 N/A
5:55 pm 17:55 Sunny 73 22.9 48 9.1 42 42 W 5 7 30.09 1019 10 16 N/A
6:15 pm 18:15 Sunny 73 22.7 48 9.1 42 42 NNW 6 9 30.08 1019 10 16 N/A
6:35 pm 18:35 Sunny 73 22.6 48 9 42 42 W 6 9 30.09 1019 10 16 N/A
6:55 pm 18:55 Sunny 73 22.5 47 8.5 41 41 N N/A 30.08 1019 10 16 N/A
7:15 pm 19:15 Sunny 72 22.1 49 9.5 45 45 WNW 3 6 30.08 1019 10 16 N/A
7:35 pm 19:35 Sunny 71 21.8 52 11.1 51 51 N N/A 30.08 1019 10 16 N/A
7:55 pm 19:55 Sunny 71 21.6 54 12.2 55 55 N N/A 30.08 1019 10 16 N/A
8:15 pm 20:15 Sunny 69 20.3 55 12.8 62 62 N N/A 30.08 1019 10 16 N/A
8:35 pm 20:35 Sunny 65 18.1 60 15.5 85 85 N N/A 30.09 1019 10 16 N/A
8:55 pm 20:55 Sunny 62 16.8 57 14 84 84 N N/A 30.09 1019 10 16 N/A
9:15 pm 21:15 Clear 62 16.6 56 13.4 82 82 N N/A 30.09 1019 10 16 N/A
9:35 pm 21:35 Clear 60 15.8 56 13.6 87 87 N N/A 30.09 1019 10 16 N/A
9:55 pm 21:55 Clear 59 14.9 56 13.3 90 90 N N/A 30.12 1020 10 16 N/A
10:15 pm 22:15 Clear 58 14.7 54 12.1 85 85 N N/A 30.13 1020 10 16 N/A
10:35 pm 22:35 Clear 58 14.3 55 12.5 89 89 N 3 6 30.14 1021 10 16 N/A
10:55 pm 22:55 Clear 56 13.5 54 12.3 93 93 N N/A 30.14 1021 10 16 N/A
11:15 pm 23:15 Clear 56 13.2 54 12 93 93 N N/A 30.14 1021 10 16 N/A
11:35 pm 23:35 Clear 56 13.4 54 12 91 91 N N/A 30.13 1020 10 16 N/A
11:55 pm 23:55 Clear 56 13.3 53 11.6 90 90 N 5 7 30.13 1020 10 16 N/A

Powered by AerisWeather